Date_Time,Julian_Date,Latitude,Longitude,Instrument_Depth,U,V,Speed,Direction
(yyyy-mm-dd hh:mn:ss UTC),(JD),(+ deg. North),(+ deg. East),(m),(cm/s),(cm/s),(cm/s),(deg True)
1984-04-25 21:17:00 UTC,2445816.386806,25.8817,-84.3197,0179,2.53,-12.53,12.7829,168.5846
1984-04-25 21:32:00 UTC,2445816.397222,25.8817,-84.3197,0179,0.27,-15.44,15.4424,178.9982
1984-04-25 21:47:00 UTC,2445816.407639,25.8817,-84.3197,0179,1.36,-14.09,14.1555,174.4868
1984-04-25 22:02:00 UTC,2445816.418056,25.8817,-84.3197,0179,2.22,-14.75,14.9161,171.4407
1984-04-25 22:17:00 UTC,2445816.428472,25.8817,-84.3197,0179,1.87,-14.88,14.9970,172.8371
1984-04-25 22:32:00 UTC,2445816.438889,25.8817,-84.3197,0179,0.26,-14.70,14.7023,178.9867
1984-04-25 22:47:00 UTC,2445816.449306,25.8817,-84.3197,0179,1.56,-13.86,13.9475,173.5781
1984-04-25 23:02:00 UTC,2445816.459722,25.8817,-84.3197,0179,2.14,-13.79,13.9551,171.1789
1984-04-25 23:17:00 UTC,2445816.470139,25.8817,-84.3197,0179,2.07,-14.98,15.1223,172.1324
1984-04-25 23:32:00 UTC,2445816.480556,25.8817,-84.3197,0179,3.14,-14.14,14.4844,167.4798
1984-04-25 23:47:00 UTC,2445816.490972,25.8817,-84.3197,0179,3.19,-15.34,15.6682,168.2526
1984-04-26 00:02:00 UTC,2445816.501389,25.8817,-84.3197,0179,2.14,-15.94,16.0830,172.3536
1984-04-26 00:17:00 UTC,2445816.511806,25.8817,-84.3197,0179,2.39,-17.31,17.4742,172.1388
1984-04-26 00:32:00 UTC,2445816.522222,25.8817,-84.3197,0179,2.32,-15.27,15.4452,171.3610
1984-04-26 00:47:00 UTC,2445816.532639,25.8817,-84.3197,0179,2.30,-14.72,14.8986,171.1193
1984-04-26 01:02:00 UTC,2445816.543056,25.8817,-84.3197,0179,2.75,-15.31,15.5550,169.8170
1984-04-26 01:17:00 UTC,2445816.553472,25.8817,-84.3197,0179,2.31,-14.74,14.9199,171.0932
1984-04-26 01:32:00 UTC,2445816.563889,25.8817,-84.3197,0179,2.10,-14.23,14.3841,171.6051
1984-04-26 01:47:00 UTC,2445816.574306,25.8817,-84.3197,0179,1.40,-13.45,13.5227,174.0575
1984-04-26 02:02:00 UTC,2445816.584722,25.8817,-84.3197,0179,0.46,-13.93,13.9376,178.1086
1984-04-26 02:17:00 UTC,2445816.595139,25.8817,-84.3197,0179,-0.85,-15.00,15.0241,183.2433
1984-04-26 02:32:00 UTC,2445816.605556,25.8817,-84.3197,0179,-1.68,-13.95,14.0508,186.8671
1984-04-26 02:47:00 UTC,2445816.615972,25.8817,-84.3197,0179,-1.77,-14.37,14.4786,187.0219
1984-04-26 03:02:00 UTC,2445816.626389,25.8817,-84.3197,0179,-2.92,-12.98,13.3044,192.6783
1984-04-26 03:17:00 UTC,2445816.636806,25.8817,-84.3197,0179,-2.71,-11.82,12.1267,192.9132
1984-04-26 03:32:00 UTC,2445816.647222,25.8817,-84.3197,0179,-2.80,-12.24,12.5562,192.8852
1984-04-26 03:47:00 UTC,2445816.657639,25.8817,-84.3197,0179,-2.70,-12.37,12.6612,192.3129
1984-04-26 04:02:00 UTC,2445816.668056,25.8817,-84.3197,0179,-1.45,-11.50,11.5911,187.1863
1984-04-26 04:17:00 UTC,2445816.678472,25.8817,-84.3197,0179,-1.26,-12.72,12.7823,185.6571
1984-04-26 04:32:00 UTC,2445816.688889,25.8817,-84.3197,0179,-2.53,-12.80,13.0476,191.1808
1984-04-26 04:47:00 UTC,2445816.699306,25.8817,-84.3197,0179,-2.64,-12.15,12.4335,192.2589
1984-04-26 05:02:00 UTC,2445816.709722,25.8817,-84.3197,0179,-2.66,-9.98,10.3284,194.9243
1984-04-26 05:17:00 UTC,2445816.720139,25.8817,-84.3197,0179,-3.67,-11.55,12.1191,197.6276
1984-04-26 05:32:00 UTC,2445816.730556,25.8817,-84.3197,0179,-2.93,-11.10,11.4802,194.7868
1984-04-26 05:47:00 UTC,2445816.740972,25.8817,-84.3197,0179,-3.53,-10.48,11.0585,198.6152
1984-04-26 06:02:00 UTC,2445816.751389,25.8817,-84.3197,0179,-3.01,-9.79,10.2423,197.0904
1984-04-26 06:17:00 UTC,2445816.761806,25.8817,-84.3197,0179,-1.64,-8.94,9.0892,190.3951
1984-04-26 06:32:00 UTC,2445816.772222,25.8817,-84.3197,0179,-1.86,-7.94,8.1550,193.1842
1984-04-26 06:47:00 UTC,2445816.782639,25.8817,-84.3197,0179,-1.96,-7.26,7.5199,195.1081
1984-04-26 07:02:00 UTC,2445816.793056,25.8817,-84.3197,0179,0.22,-8.44,8.4429,178.5068
1984-04-26 07:17:00 UTC,2445816.803472,25.8817,-84.3197,0179,1.17,-9.13,9.2047,172.6974
1984-04-26 07:32:00 UTC,2445816.813889,25.8817,-84.3197,0179,-0.10,-8.06,8.0606,180.7108
1984-04-26 07:47:00 UTC,2445816.824306,25.8817,-84.3197,0179,-6.33,-6.90,9.3637,222.5330
1984-04-26 08:02:00 UTC,2445816.834722,25.8817,-84.3197,0179,-5.91,-6.17,8.5438,223.7670
1984-04-26 08:17:00 UTC,2445816.845139,25.8817,-84.3197,0179,-6.53,-6.47,9.1925,225.2645
1984-04-26 08:32:00 UTC,2445816.855556,25.8817,-84.3197,0179,-8.55,-7.69,11.4995,228.0313
1984-04-26 08:47:00 UTC,2445816.865972,25.8817,-84.3197,0179,-7.37,-6.16,9.6053,230.1104
1984-04-26 09:02:00 UTC,2445816.876389,25.8817,-84.3197,0179,-4.23,-5.32,6.7967,218.4887
1984-04-26 09:17:00 UTC,2445816.886806,25.8817,-84.3197,0179,0.77,-5.70,5.7518,172.3066
1984-04-26 09:32:00 UTC,2445816.897222,25.8817,-84.3197,0179,2.59,-6.04,6.5719,156.7899
1984-04-26 09:47:00 UTC,2445816.907639,25.8817,-84.3197,0179,4.78,-5.01,6.9245,136.3458
1984-04-26 10:02:00 UTC,2445816.918056,25.8817,-84.3197,0179,7.38,-4.74,8.7711,122.7117
1984-04-26 10:17:00 UTC,2445816.928472,25.8817,-84.3197,0179,5.96,-6.16,8.5713,135.9454
1984-04-26 10:32:00 UTC,2445816.938889,25.8817,-84.3197,0179,4.37,-7.22,8.4395,148.8150
1984-04-26 10:47:00 UTC,2445816.949306,25.8817,-84.3197,0179,4.79,-6.47,8.0502,143.4860
1984-04-26 11:02:00 UTC,2445816.959722,25.8817,-84.3197,0179,3.98,-8.30,9.2049,154.3814
1984-04-26 11:17:00 UTC,2445816.970139,25.8817,-84.3197,0179,5.25,-8.74,10.1956,149.0073
1984-04-26 11:32:00 UTC,2445816.980556,25.8817,-84.3197,0179,8.59,-5.95,10.4494,124.7090
1984-04-26 11:47:00 UTC,2445816.990972,25.8817,-84.3197,0179,8.80,-6.01,10.6565,124.3313
1984-04-26 12:02:00 UTC,2445817.001389,25.8817,-84.3197,0179,7.14,-7.22,10.1542,135.3192
1984-04-26 12:17:00 UTC,2445817.011806,25.8817,-84.3197,0179,9.56,-5.60,11.0794,120.3607
1984-04-26 12:32:00 UTC,2445817.022222,25.8817,-84.3197,0179,3.27,-6.55,7.3209,153.4699
1984-04-26 12:47:00 UTC,2445817.032639,25.8817,-84.3197,0179,1.10,-7.66,7.7386,171.8280
1984-04-26 13:02:00 UTC,2445817.043056,25.8817,-84.3197,0179,-0.02,-7.31,7.3100,180.1568
1984-04-26 13:17:00 UTC,2445817.053472,25.8817,-84.3197,0179,0.51,-6.98,6.9986,175.8211
1984-04-26 13:32:00 UTC,2445817.063889,25.8817,-84.3197,0179,0.55,-7.28,7.3007,175.6795
1984-04-26 13:47:00 UTC,2445817.074306,25.8817,-84.3197,0179,0.96,-6.82,6.8872,171.9875
1984-04-26 14:02:00 UTC,2445817.084722,25.8817,-84.3197,0179,2.53,-7.06,7.4996,160.2845
1984-04-26 14:17:00 UTC,2445817.095139,25.8817,-84.3197,0179,4.70,-8.03,9.3043,149.6593
1984-04-26 14:32:00 UTC,2445817.105556,25.8817,-84.3197,0179,4.41,-7.32,8.5458,148.9327
1984-04-26 14:47:00 UTC,2445817.115972,25.8817,-84.3197,0179,7.32,-6.71,9.9301,132.5104
1984-04-26 15:02:00 UTC,2445817.126389,25.8817,-84.3197,0179,3.46,-9.93,10.5155,160.7897
1984-04-26 15:17:00 UTC,2445817.136806,25.8817,-84.3197,0179,2.37,-8.35,8.6798,164.1543
1984-04-26 15:32:00 UTC,2445817.147222,25.8817,-84.3197,0179,3.06,-7.90,8.4719,158.8265
1984-04-26 15:47:00 UTC,2445817.157639,25.8817,-84.3197,0179,2.29,-8.04,8.3598,164.1017
1984-04-26 16:02:00 UTC,2445817.168056,25.8817,-84.3197,0179,1.12,-7.54,7.6227,171.5510
1984-04-26 16:17:00 UTC,2445817.178472,25.8817,-84.3197,0179,1.29,-7.52,7.6298,170.2661
1984-04-26 16:32:00 UTC,2445817.188889,25.8817,-84.3197,0179,0.96,-8.10,8.1567,173.2409
1984-04-26 16:47:00 UTC,2445817.199306,25.8817,-84.3197,0179,1.54,-7.97,8.1174,169.0638
1984-04-26 17:02:00 UTC,2445817.209722,25.8817,-84.3197,0179,1.55,-7.78,7.9329,168.7325
1984-04-26 17:17:00 UTC,2445817.220139,25.8817,-84.3197,0179,1.59,-7.89,8.0486,168.6063
1984-04-26 17:32:00 UTC,2445817.230556,25.8817,-84.3197,0179,2.08,-6.15,6.4922,161.3139
1984-04-26 17:47:00 UTC,2445817.240972,25.8817,-84.3197,0179,0.33,-6.02,6.0290,176.8623
1984-04-26 18:02:00 UTC,2445817.251389,25.8817,-84.3197,0179,1.81,-6.03,6.2958,163.2920
1984-04-26 18:17:00 UTC,2445817.261806,25.8817,-84.3197,0179,3.02,-6.09,6.7977,153.6234
1984-04-26 18:32:00 UTC,2445817.272222,25.8817,-84.3197,0179,1.89,-7.07,7.3183,165.0333
1984-04-26 18:47:00 UTC,2445817.282639,25.8817,-84.3197,0179,2.71,-6.89,7.4038,158.5291
1984-04-26 19:02:00 UTC,2445817.293056,25.8817,-84.3197,0179,3.68,-7.16,8.0503,152.7983
1984-04-26 19:17:00 UTC,2445817.303472,25.8817,-84.3197,0179,2.57,-6.95,7.4100,159.7064
1984-04-26 19:32:00 UTC,2445817.313889,25.8817,-84.3197,0179,2.75,-6.90,7.4278,158.2702
1984-04-26 19:47:00 UTC,2445817.324306,25.8817,-84.3197,0179,3.16,-6.14,6.9054,152.7670
1984-04-26 20:02:00 UTC,2445817.334722,25.8817,-84.3197,0179,1.28,-5.91,6.0470,167.7795
1984-04-26 20:17:00 UTC,2445817.345139,25.8817,-84.3197,0179,1.48,-5.02,5.2336,163.5734
1984-04-26 20:32:00 UTC,2445817.355556,25.8817,-84.3197,0179,0.97,-5.02,5.1129,169.0637
1984-04-26 20:47:00 UTC,2445817.365972,25.8817,-84.3197,0179,1.21,-4.23,4.3997,164.0367
1984-04-26 21:02:00 UTC,2445817.376389,25.8817,-84.3197,0179,1.43,-3.94,4.1915,160.0519
1984-04-26 21:17:00 UTC,2445817.386806,25.8817,-84.3197,0179,2.16,-3.47,4.0874,148.0986
1984-04-26 21:32:00 UTC,2445817.397222,25.8817,-84.3197,0179,0.02,-4.08,4.0800,179.7191
1984-04-26 21:47:00 UTC,2445817.407639,25.8817,-84.3197,0179,-0.34,-4.17,4.1838,184.6613
1984-04-26 22:02:00 UTC,2445817.418056,25.8817,-84.3197,0179,0.94,-3.54,3.6627,165.1290
1984-04-26 22:17:00 UTC,2445817.428472,25.8817,-84.3197,0179,1.50,-3.20,3.5341,154.8852
1984-04-26 22:32:00 UTC,2445817.438889,25.8817,-84.3197,0179,1.67,-3.61,3.9776,155.1746
1984-04-26 22:47:00 UTC,2445817.449306,25.8817,-84.3197,0179,0.89,-4.09,4.1857,167.7236
1984-04-26 23:02:00 UTC,2445817.459722,25.8817,-84.3197,0179,1.29,-3.99,4.1934,162.0835
1984-04-26 23:17:00 UTC,2445817.470139,25.8817,-84.3197,0179,0.94,-4.18,4.2844,167.3261
1984-04-26 23:32:00 UTC,2445817.480556,25.8817,-84.3197,0179,1.60,-3.99,4.2988,158.1491
1984-04-26 23:47:00 UTC,2445817.490972,25.8817,-84.3197,0179,2.77,-3.15,4.1947,138.6727
1984-04-27 00:02:00 UTC,2445817.501389,25.8817,-84.3197,0179,3.24,-3.56,4.8136,137.6943
1984-04-27 00:17:00 UTC,2445817.511806,25.8817,-84.3197,0179,3.60,-3.49,5.0140,134.1111
1984-04-27 00:32:00 UTC,2445817.522222,25.8817,-84.3197,0179,3.63,-3.00,4.7092,129.5719
1984-04-27 00:47:00 UTC,2445817.532639,25.8817,-84.3197,0179,3.71,-3.53,5.1210,133.5758
1984-04-27 01:02:00 UTC,2445817.543056,25.8817,-84.3197,0179,3.67,-3.27,4.9155,131.7013
1984-04-27 01:17:00 UTC,2445817.553472,25.8817,-84.3197,0179,3.86,-3.97,5.5372,135.8049
1984-04-27 01:32:00 UTC,2445817.563889,25.8817,-84.3197,0179,3.34,-3.88,5.1196,139.2773
1984-04-27 01:47:00 UTC,2445817.574306,25.8817,-84.3197,0179,3.23,-4.07,5.1959,141.5641
1984-04-27 02:02:00 UTC,2445817.584722,25.8817,-84.3197,0179,-1.28,-5.74,5.8810,192.5711
1984-04-27 02:17:00 UTC,2445817.595139,25.8817,-84.3197,0179,0.22,-5.54,5.5444,177.7259
1984-04-27 02:32:00 UTC,2445817.605556,25.8817,-84.3197,0179,1.88,-5.71,6.0115,161.7760
1984-04-27 02:47:00 UTC,2445817.615972,25.8817,-84.3197,0179,1.95,-5.84,6.1570,161.5356
1984-04-27 03:02:00 UTC,2445817.626389,25.8817,-84.3197,0179,0.50,-5.62,5.6422,174.9159
1984-04-27 03:17:00 UTC,2445817.636806,25.8817,-84.3197,0179,1.15,-5.75,5.8639,168.6901
1984-04-27 03:32:00 UTC,2445817.647222,25.8817,-84.3197,0179,-0.58,-5.20,5.2322,186.3644
1984-04-27 03:47:00 UTC,2445817.657639,25.8817,-84.3197,0179,-0.43,-5.32,5.3373,184.6210
1984-04-27 04:02:00 UTC,2445817.668056,25.8817,-84.3197,0179,-0.65,-5.40,5.4390,186.8637
1984-04-27 04:17:00 UTC,2445817.678472,25.8817,-84.3197,0179,-0.47,-5.09,5.1117,185.2756
1984-04-27 04:32:00 UTC,2445817.688889,25.8817,-84.3197,0179,-2.07,-5.42,5.8018,200.9028
1984-04-27 04:47:00 UTC,2445817.699306,25.8817,-84.3197,0179,-3.48,-4.44,5.6413,218.0888
1984-04-27 05:02:00 UTC,2445817.709722,25.8817,-84.3197,0179,-3.40,-3.98,5.2345,220.5063
1984-04-27 05:17:00 UTC,2445817.720139,25.8817,-84.3197,0179,-4.15,-3.34,5.3271,231.1722
1984-04-27 05:32:00 UTC,2445817.730556,25.8817,-84.3197,0179,-5.18,-3.34,6.1634,237.1866
1984-04-27 05:47:00 UTC,2445817.740972,25.8817,-84.3197,0179,-5.13,-2.82,5.8540,241.2021
1984-04-27 06:02:00 UTC,2445817.751389,25.8817,-84.3197,0179,-5.21,-2.89,5.9579,240.9828
1984-04-27 06:17:00 UTC,2445817.761806,25.8817,-84.3197,0179,-3.90,-2.96,4.8961,232.8024
1984-04-27 06:32:00 UTC,2445817.772222,25.8817,-84.3197,0179,-3.89,-2.04,4.3925,242.3265
1984-04-27 06:47:00 UTC,2445817.782639,25.8817,-84.3197,0179,-3.34,-0.38,3.3615,263.5092
1984-04-27 07:02:00 UTC,2445817.793056,25.8817,-84.3197,0179,-1.21,-2.72,2.9770,203.9820
1984-04-27 07:17:00 UTC,2445817.803472,25.8817,-84.3197,0179,-2.02,-2.38,3.1217,220.3226
1984-04-27 07:32:00 UTC,2445817.813889,25.8817,-84.3197,0179,-3.78,-1.26,3.9845,251.5651
1984-04-27 07:47:00 UTC,2445817.824306,25.8817,-84.3197,0179,-4.86,1.50,5.0862,287.1524
1984-04-27 08:02:00 UTC,2445817.834722,25.8817,-84.3197,0179,-5.29,2.96,6.0618,299.2290
1984-04-27 08:17:00 UTC,2445817.845139,25.8817,-84.3197,0179,-2.95,6.56,7.1928,335.7868
1984-04-27 08:32:00 UTC,2445817.855556,25.8817,-84.3197,0179,-2.89,6.69,7.2875,336.6362
1984-04-27 08:47:00 UTC,2445817.865972,25.8817,-84.3197,0179,-4.53,4.99,6.7395,317.7664
1984-04-27 09:02:00 UTC,2445817.876389,25.8817,-84.3197,0179,-3.78,6.94,7.9027,331.4243
1984-04-27 09:17:00 UTC,2445817.886806,25.8817,-84.3197,0179,-4.14,7.77,8.8041,331.9505
1984-04-27 09:32:00 UTC,2445817.897222,25.8817,-84.3197,0179,-3.01,9.15,9.6324,341.7908
1984-04-27 09:47:00 UTC,2445817.907639,25.8817,-84.3197,0179,-2.97,8.52,9.0228,340.7819
1984-04-27 10:02:00 UTC,2445817.918056,25.8817,-84.3197,0179,-3.47,8.44,9.1255,337.6506
1984-04-27 10:17:00 UTC,2445817.928472,25.8817,-84.3197,0179,-3.90,8.47,9.3247,335.2764
1984-04-27 10:32:00 UTC,2445817.938889,25.8817,-84.3197,0179,-3.79,10.60,11.2572,340.3256
1984-04-27 10:47:00 UTC,2445817.949306,25.8817,-84.3197,0179,-3.90,11.11,11.7746,340.6571
1984-04-27 11:02:00 UTC,2445817.959722,25.8817,-84.3197,0179,-3.01,10.21,10.6444,343.5740
1984-04-27 11:17:00 UTC,2445817.970139,25.8817,-84.3197,0179,-3.27,9.06,9.6321,340.1541
1984-04-27 11:32:00 UTC,2445817.980556,25.8817,-84.3197,0179,-2.05,8.89,9.1233,347.0148
1984-04-27 11:47:00 UTC,2445817.990972,25.8817,-84.3197,0179,-0.99,8.03,8.0908,352.9716
1984-04-27 12:02:00 UTC,2445818.001389,25.8817,-84.3197,0179,-1.06,9.77,9.8273,353.8079
1984-04-27 12:17:00 UTC,2445818.011806,25.8817,-84.3197,0179,-1.15,11.91,11.9654,354.4848
1984-04-27 12:32:00 UTC,2445818.022222,25.8817,-84.3197,0179,-2.56,11.90,12.1722,347.8592
1984-04-27 12:47:00 UTC,2445818.032639,25.8817,-84.3197,0179,-3.00,12.62,12.9717,346.6280
1984-04-27 13:02:00 UTC,2445818.043056,25.8817,-84.3197,0179,-3.15,11.86,12.2712,345.1257
1984-04-27 13:17:00 UTC,2445818.053472,25.8817,-84.3197,0179,-3.07,10.94,11.3626,344.3247
1984-04-27 13:32:00 UTC,2445818.063889,25.8817,-84.3197,0179,-1.48,10.64,10.7424,352.0811
1984-04-27 13:47:00 UTC,2445818.074306,25.8817,-84.3197,0179,2.08,10.51,10.7138,11.1946
1984-04-27 14:02:00 UTC,2445818.084722,25.8817,-84.3197,0179,2.44,8.79,9.1224,15.5140
1984-04-27 14:17:00 UTC,2445818.095139,25.8817,-84.3197,0179,2.93,8.74,9.2181,18.5332
1984-04-27 14:32:00 UTC,2445818.105556,25.8817,-84.3197,0179,2.86,9.51,9.9307,16.7379
1984-04-27 14:47:00 UTC,2445818.115972,25.8817,-84.3197,0179,2.88,9.82,10.2336,16.3453
1984-04-27 15:02:00 UTC,2445818.126389,25.8817,-84.3197,0179,2.14,10.10,10.3242,11.9630
1984-04-27 15:17:00 UTC,2445818.136806,25.8817,-84.3197,0179,2.11,10.47,10.6805,11.3941
1984-04-27 15:32:00 UTC,2445818.147222,25.8817,-84.3197,0179,3.51,10.36,10.9384,18.7165
1984-04-27 15:47:00 UTC,2445818.157639,25.8817,-84.3197,0179,4.20,9.88,10.7357,23.0304
1984-04-27 16:02:00 UTC,2445818.168056,25.8817,-84.3197,0179,3.32,8.81,9.4148,20.6486
1984-04-27 16:17:00 UTC,2445818.178472,25.8817,-84.3197,0179,2.95,8.83,9.3097,18.4739
1984-04-27 16:32:00 UTC,2445818.188889,25.8817,-84.3197,0179,3.37,9.32,9.9106,19.8794
1984-04-27 16:47:00 UTC,2445818.199306,25.8817,-84.3197,0179,3.06,9.13,9.6291,18.5290
1984-04-27 17:02:00 UTC,2445818.209722,25.8817,-84.3197,0179,3.57,9.05,9.7287,21.5280
1984-04-27 17:17:00 UTC,2445818.220139,25.8817,-84.3197,0179,3.28,9.81,10.3438,18.4875
1984-04-27 17:32:00 UTC,2445818.230556,25.8817,-84.3197,0179,4.38,10.36,11.2478,22.9177
1984-04-27 17:47:00 UTC,2445818.240972,25.8817,-84.3197,0179,3.00,10.63,11.0452,15.7601
1984-04-27 18:02:00 UTC,2445818.251389,25.8817,-84.3197,0179,3.02,11.06,11.4649,15.2727
1984-04-27 18:17:00 UTC,2445818.261806,25.8817,-84.3197,0179,4.28,11.61,12.3738,20.2363
1984-04-27 18:32:00 UTC,2445818.272222,25.8817,-84.3197,0179,5.05,11.86,12.8904,23.0644
1984-04-27 18:47:00 UTC,2445818.282639,25.8817,-84.3197,0179,5.02,11.99,12.9985,22.7182
1984-04-27 19:02:00 UTC,2445818.293056,25.8817,-84.3197,0179,4.31,12.03,12.7788,19.7111
1984-04-27 19:17:00 UTC,2445818.303472,25.8817,-84.3197,0179,3.74,12.42,12.9709,16.7585
1984-04-27 19:32:00 UTC,2445818.313889,25.8817,-84.3197,0179,4.52,12.94,13.7067,19.2545
1984-04-27 19:47:00 UTC,2445818.324306,25.8817,-84.3197,0179,5.27,13.64,14.6227,21.1247
1984-04-27 20:02:00 UTC,2445818.334722,25.8817,-84.3197,0179,5.13,13.91,14.8258,20.2439
1984-04-27 20:17:00 UTC,2445818.345139,25.8817,-84.3197,0179,4.89,13.55,14.4054,19.8438
1984-04-27 20:32:00 UTC,2445818.355556,25.8817,-84.3197,0179,4.18,12.73,13.3987,18.1780
1984-04-27 20:47:00 UTC,2445818.365972,25.8817,-84.3197,0179,3.28,13.19,13.5917,13.9647
1984-04-27 21:02:00 UTC,2445818.376389,25.8817,-84.3197,0179,3.35,14.00,14.3952,13.4570
1984-04-27 21:17:00 UTC,2445818.386806,25.8817,-84.3197,0179,4.34,14.92,15.5384,16.2189
1984-04-27 21:32:00 UTC,2445818.397222,25.8817,-84.3197,0179,4.00,15.12,15.6402,14.8181
1984-04-27 21:47:00 UTC,2445818.407639,25.8817,-84.3197,0179,4.05,15.00,15.5371,15.1096
1984-04-27 22:02:00 UTC,2445818.418056,25.8817,-84.3197,0179,3.23,14.57,14.9237,12.4997
1984-04-27 22:17:00 UTC,2445818.428472,25.8817,-84.3197,0179,3.03,14.69,14.9992,11.6545
1984-04-27 22:32:00 UTC,2445818.438889,25.8817,-84.3197,0179,4.05,14.26,14.8240,15.8551
1984-04-27 22:47:00 UTC,2445818.449306,25.8817,-84.3197,0179,3.17,14.48,14.8229,12.3485
1984-04-27 23:02:00 UTC,2445818.459722,25.8817,-84.3197,0179,3.86,15.37,15.8473,14.0976
1984-04-27 23:17:00 UTC,2445818.470139,25.8817,-84.3197,0179,4.38,15.97,16.5597,15.3371
1984-04-27 23:32:00 UTC,2445818.480556,25.8817,-84.3197,0179,4.18,16.01,16.5467,14.6325
1984-04-27 23:47:00 UTC,2445818.490972,25.8817,-84.3197,0179,3.31,15.59,15.9375,11.9868
1984-04-28 00:02:00 UTC,2445818.501389,25.8817,-84.3197,0179,3.49,15.25,15.6443,12.8903
1984-04-28 00:17:00 UTC,2445818.511806,25.8817,-84.3197,0179,3.37,14.54,14.9254,13.0493
1984-04-28 00:32:00 UTC,2445818.522222,25.8817,-84.3197,0179,3.56,13.63,14.0872,14.6380
1984-04-28 00:47:00 UTC,2445818.532639,25.8817,-84.3197,0179,3.83,13.79,14.3120,15.5220
1984-04-28 01:02:00 UTC,2445818.543056,25.8817,-84.3197,0179,5.30,13.84,14.8201,20.9542
1984-04-28 01:17:00 UTC,2445818.553472,25.8817,-84.3197,0179,4.00,12.58,13.2006,17.6388
1984-04-28 01:32:00 UTC,2445818.563889,25.8817,-84.3197,0179,4.26,12.26,12.9790,19.1609
1984-04-28 01:47:00 UTC,2445818.574306,25.8817,-84.3197,0179,4.61,13.01,13.8026,19.5114
1984-04-28 02:02:00 UTC,2445818.584722,25.8817,-84.3197,0179,4.19,12.50,13.1836,18.5312
1984-04-28 02:17:00 UTC,2445818.595139,25.8817,-84.3197,0179,4.54,13.14,13.9022,19.0605
1984-04-28 02:32:00 UTC,2445818.605556,25.8817,-84.3197,0179,3.63,13.11,13.6033,15.4768
1984-04-28 02:47:00 UTC,2445818.615972,25.8817,-84.3197,0179,4.36,12.45,13.1914,19.3003
1984-04-28 03:02:00 UTC,2445818.626389,25.8817,-84.3197,0179,3.74,12.64,13.1817,16.4828
1984-04-28 03:17:00 UTC,2445818.636806,25.8817,-84.3197,0179,4.05,12.23,12.8831,18.3224
1984-04-28 03:32:00 UTC,2445818.647222,25.8817,-84.3197,0179,4.16,12.28,12.9655,18.7144
1984-04-28 03:47:00 UTC,2445818.657639,25.8817,-84.3197,0179,3.42,12.42,12.8823,15.3955
1984-04-28 04:02:00 UTC,2445818.668056,25.8817,-84.3197,0179,4.84,12.28,13.1994,21.5112
1984-04-28 04:17:00 UTC,2445818.678472,25.8817,-84.3197,0179,4.15,11.98,12.6784,19.1066
1984-04-28 04:32:00 UTC,2445818.688889,25.8817,-84.3197,0179,4.21,11.62,12.3591,19.9158
1984-04-28 04:47:00 UTC,2445818.699306,25.8817,-84.3197,0179,4.99,11.99,12.9869,22.5961
1984-04-28 05:02:00 UTC,2445818.709722,25.8817,-84.3197,0179,4.91,12.03,12.9934,22.2026
1984-04-28 05:17:00 UTC,2445818.720139,25.8817,-84.3197,0179,4.44,11.98,12.7763,20.3356
1984-04-28 05:32:00 UTC,2445818.730556,25.8817,-84.3197,0179,3.69,11.71,12.2776,17.4904
1984-04-28 05:47:00 UTC,2445818.740972,25.8817,-84.3197,0179,3.31,11.51,11.9765,16.0440
1984-04-28 06:02:00 UTC,2445818.751389,25.8817,-84.3197,0179,2.43,11.30,11.5583,12.1363
1984-04-28 06:17:00 UTC,2445818.761806,25.8817,-84.3197,0179,1.77,11.52,11.6552,8.7349
1984-04-28 06:32:00 UTC,2445818.772222,25.8817,-84.3197,0179,-0.50,11.80,11.8106,357.5737
1984-04-28 06:47:00 UTC,2445818.782639,25.8817,-84.3197,0179,1.24,12.11,12.1733,5.8464
1984-04-28 07:02:00 UTC,2445818.793056,25.8817,-84.3197,0179,1.86,12.23,12.3706,8.6476
1984-04-28 07:17:00 UTC,2445818.803472,25.8817,-84.3197,0179,2.13,12.49,12.6703,9.6779
1984-04-28 07:32:00 UTC,2445818.813889,25.8817,-84.3197,0179,2.20,11.97,12.1705,10.4143
1984-04-28 07:47:00 UTC,2445818.824306,25.8817,-84.3197,0179,2.27,13.61,13.7980,9.4691
1984-04-28 08:02:00 UTC,2445818.834722,25.8817,-84.3197,0179,3.24,12.90,13.3007,14.0989
1984-04-28 08:17:00 UTC,2445818.845139,25.8817,-84.3197,0179,3.11,13.34,13.6977,13.1232
1984-04-28 08:32:00 UTC,2445818.855556,25.8817,-84.3197,0179,3.04,13.67,14.0039,12.5377
1984-04-28 08:47:00 UTC,2445818.865972,25.8817,-84.3197,0179,2.39,13.28,13.4934,10.2023
1984-04-28 09:02:00 UTC,2445818.876389,25.8817,-84.3197,0179,3.08,14.29,14.6182,12.1632
1984-04-28 09:17:00 UTC,2445818.886806,25.8817,-84.3197,0179,3.60,14.70,15.1344,13.7608
1984-04-28 09:32:00 UTC,2445818.897222,25.8817,-84.3197,0179,4.06,14.79,15.3371,15.3501
1984-04-28 09:47:00 UTC,2445818.907639,25.8817,-84.3197,0179,3.72,14.77,15.2313,14.1366
1984-04-28 10:02:00 UTC,2445818.918056,25.8817,-84.3197,0179,4.74,15.75,16.4478,16.7493
1984-04-28 10:17:00 UTC,2445818.928472,25.8817,-84.3197,0179,4.77,15.42,16.1409,17.1889
1984-04-28 10:32:00 UTC,2445818.938889,25.8817,-84.3197,0179,2.52,13.89,14.1167,10.2831
1984-04-28 10:47:00 UTC,2445818.949306,25.8817,-84.3197,0179,4.06,14.57,15.1251,15.5707
1984-04-28 11:02:00 UTC,2445818.959722,25.8817,-84.3197,0179,5.41,15.97,16.8615,18.7143
1984-04-28 11:17:00 UTC,2445818.970139,25.8817,-84.3197,0179,5.58,16.23,17.1624,18.9734
1984-04-28 11:32:00 UTC,2445818.980556,25.8817,-84.3197,0179,5.53,15.16,16.1371,20.0407
1984-04-28 11:47:00 UTC,2445818.990972,25.8817,-84.3197,0179,4.82,14.55,15.3276,18.3286
1984-04-28 12:02:00 UTC,2445819.001389,25.8817,-84.3197,0179,5.34,13.94,14.9278,20.9604
1984-04-28 12:17:00 UTC,2445819.011806,25.8817,-84.3197,0179,5.01,13.84,14.7189,19.9000
1984-04-28 12:32:00 UTC,2445819.022222,25.8817,-84.3197,0179,5.43,14.99,15.9432,19.9125
1984-04-28 12:47:00 UTC,2445819.032639,25.8817,-84.3197,0179,5.51,14.96,15.9424,20.2195
1984-04-28 13:02:00 UTC,2445819.043056,25.8817,-84.3197,0179,5.54,14.08,15.1307,21.4779
1984-04-28 13:17:00 UTC,2445819.053472,25.8817,-84.3197,0179,4.59,12.80,13.5981,19.7275
1984-04-28 13:32:00 UTC,2445819.063889,25.8817,-84.3197,0179,4.10,11.90,12.5865,19.0108
1984-04-28 13:47:00 UTC,2445819.074306,25.8817,-84.3197,0179,4.79,13.27,14.1080,19.8478
1984-04-28 14:02:00 UTC,2445819.084722,25.8817,-84.3197,0179,4.86,12.92,13.8038,20.6143
1984-04-28 14:17:00 UTC,2445819.095139,25.8817,-84.3197,0179,4.72,12.75,13.5956,20.3144
1984-04-28 14:32:00 UTC,2445819.105556,25.8817,-84.3197,0179,5.40,12.70,13.8004,23.0350
1984-04-28 14:47:00 UTC,2445819.115972,25.8817,-84.3197,0179,5.73,12.68,13.9146,24.3179
1984-04-28 15:02:00 UTC,2445819.126389,25.8817,-84.3197,0179,5.56,12.20,13.4072,24.5005
1984-04-28 15:17:00 UTC,2445819.136806,25.8817,-84.3197,0179,5.28,10.86,12.0755,25.9285
1984-04-28 15:32:00 UTC,2445819.147222,25.8817,-84.3197,0179,4.53,9.74,10.7419,24.9428
1984-04-28 15:47:00 UTC,2445819.157639,25.8817,-84.3197,0179,3.62,8.59,9.3216,22.8515
1984-04-28 16:02:00 UTC,2445819.168056,25.8817,-84.3197,0179,3.42,7.91,8.6177,23.3819
1984-04-28 16:17:00 UTC,2445819.178472,25.8817,-84.3197,0179,4.07,7.81,8.8069,27.5252